College Station, TX

4:05 PM CST on December 15, 2017 (GMT -0600)
Easterwood

Weather History for KCLL - August, 2012

Change the Weather History Date:

Sunday, August 12, 2012

  Actual Average Record
Temperature  
Mean Temperature 89 °F 86 °F  
Max Temperature 99 °F 97 °F 105 °F (2000)
Min Temperature 79 °F 75 °F 64 °F (1967)
Degree Days  
Heating Degree Days 0 0  
Month to date heating degree days 0 0  
Since 1 June heating degree days 0 0  
Since 1 July heating degree days 0 0  
Cooling Degree Days 24 21  
Month to date cooling degree days 287 251  
Year to date cooling degree days 2363 1966  
Since 1 June cooling degree days 1497 1378  
Growing Degree Days 38 (Base 50)    
Moisture  
Dew Point 73 °F    
Average Humidity 64    
Maximum Humidity 88    
Minimum Humidity 37    
Precipitation  
Precipitation 0.00 in 0.08 in 2.09 in (2008)
Month to date precipitation 0.29 0.88  
Year to date precipitation 30.11 23.72  
Sea Level Pressure  
Sea Level Pressure 29.94 in    
Wind  
Wind Speed 9 mph (South)    
Max Wind Speed 20 mph    
Max Gust Speed 25 mph    
Visibility 10 miles    
Events      
T = Trace of Precipitation, MM = Missing Value Source: NWS Daily Summary

Daily Weather History Graph

Daily Weather History Graph

Search for Another Location

Airport or City:

Trip Planner

Search our weather history database for the weather conditions in past years. The results will help you decide how hot, cold, wet, or windy it might be!

Date:

Astronomy

Aug. 12, 2012 Rise Set
Actual Time 6:50 AM CDT 8:09 PM CDT
Civil Twilight 6:25 AM CDT 8:35 PM CDT
Nautical Twilight 5:54 AM CDT 9:05 PM CDT
Astronomical Twilight 5:23 AM CDT 9:36 PM CDT
Moon 2:12 AM CDT (8/12) 4:27 PM CDT (8/12)
Length of Visible Light 14h 10m
Length of Day
13h 19m
Waning Crescent, 24% of the Moon is Illuminated
Aug 12
Waning Crescent
Aug 17
New
Aug 24
First Quarter
Aug 31
Full
Sep 8
Last Quarter

Hourly Weather History & Observations

Time (CDT) Temp. Heat Index Dew Point Humidity Pressure Visibility Wind Dir Wind Speed Gust Speed Precip Events Conditions
12:53 AM 84.0 °F 90.2 °F 73.0 °F 69% 29.88 in 10.0 mi South 8.1 mph - N/A   Clear
1:53 AM 82.9 °F 89.4 °F 73.9 °F 74% 29.89 in 10.0 mi South 4.6 mph - N/A   Clear
2:53 AM 81.0 °F 86.2 °F 73.9 °F 79% 29.89 in 10.0 mi South 4.6 mph - N/A   Clear
3:53 AM 80.1 °F 84.2 °F 73.0 °F 79% 29.91 in 10.0 mi South 4.6 mph - N/A   Clear
4:53 AM 80.1 °F 84.5 °F 73.9 °F 81% 29.91 in 10.0 mi South 4.6 mph - N/A   Clear
5:53 AM 79.0 °F - 75.0 °F 88% 29.93 in 10.0 mi South 5.8 mph - N/A   Partly Cloudy
6:06 AM 80.6 °F 86.2 °F 75.2 °F 84% 29.94 in 10.0 mi South 6.9 mph - N/A   Mostly Cloudy
6:53 AM 79.0 °F - 75.0 °F 88% 29.94 in 10.0 mi South 5.8 mph - N/A   Mostly Cloudy
7:49 AM 80.6 °F 86.2 °F 75.2 °F 84% 29.98 in 10.0 mi South 4.6 mph - N/A   Scattered Clouds
7:53 AM 80.1 °F 85.4 °F 75.9 °F 87% 29.96 in 10.0 mi South 4.6 mph - N/A   Scattered Clouds
8:21 AM 80.6 °F 86.2 °F 75.2 °F 84% 29.99 in 10.0 mi South 6.9 mph - N/A   Mostly Cloudy
8:53 AM 82.9 °F 90.8 °F 75.9 °F 79% 29.97 in 10.0 mi SSW 10.4 mph - N/A   Mostly Cloudy
9:19 AM 84.2 °F 92.3 °F 75.2 °F 74% 29.98 in 10.0 mi SW 13.8 mph - N/A   Scattered Clouds
9:49 AM 86.0 °F 95.1 °F 75.2 °F 70% 29.99 in 10.0 mi SSW 12.7 mph - N/A   Mostly Cloudy
9:53 AM 87.1 °F 96.3 °F 75.0 °F 67% 29.98 in 10.0 mi SW 11.5 mph - N/A   Mostly Cloudy
10:08 AM 87.8 °F 97.6 °F 75.2 °F 66% 29.99 in 10.0 mi SSW 12.7 mph - N/A   Scattered Clouds
10:30 AM 87.8 °F 97.6 °F 75.2 °F 66% 29.99 in 10.0 mi SSW 10.4 mph - N/A   Mostly Cloudy
10:43 AM 89.6 °F 98.2 °F 73.4 °F 59% 29.99 in 10.0 mi SSW 13.8 mph - N/A   Scattered Clouds
10:53 AM 89.6 °F 98.2 °F 73.4 °F 59% 29.99 in 10.0 mi SW 11.5 mph - N/A   Scattered Clouds
11:53 AM 91.0 °F 99.3 °F 73.0 °F 55% 29.97 in 10.0 mi South 10.4 mph 20.7 mph N/A   Partly Cloudy
12:53 PM 93.9 °F 100.8 °F 71.1 °F 47% 29.96 in 10.0 mi SSE 9.2 mph 16.1 mph N/A   Partly Cloudy
1:53 PM 97.0 °F 103.5 °F 70.0 °F 41% 29.93 in 10.0 mi South 12.7 mph 21.9 mph N/A   Partly Cloudy
2:53 PM 98.1 °F 105.0 °F 70.0 °F 40% 29.91 in 10.0 mi SSE 13.8 mph 17.3 mph N/A   Partly Cloudy
3:53 PM 98.1 °F 104.4 °F 69.1 °F 39% 29.89 in 10.0 mi SSE 16.1 mph 21.9 mph N/A   Partly Cloudy
4:53 PM 98.1 °F 103.0 °F 68.0 °F 37% 29.89 in 10.0 mi South 10.4 mph 19.6 mph N/A   Partly Cloudy
5:53 PM 97.0 °F 101.0 °F 66.9 °F 37% 29.87 in 10.0 mi SSE 12.7 mph 20.7 mph N/A   Clear
6:53 PM 96.1 °F 101.0 °F 68.0 °F 40% 29.87 in 10.0 mi South 9.2 mph - N/A   Clear
7:53 PM 93.9 °F 98.6 °F 68.0 °F 43% 29.88 in 10.0 mi South 6.9 mph - 0.00 in   Clear
8:53 PM 91.0 °F 95.6 °F 69.1 °F 48% 29.90 in 10.0 mi South 3.5 mph - N/A   Clear
9:53 PM 88.0 °F 92.1 °F 69.1 °F 53% 29.92 in 10.0 mi South 5.8 mph - N/A   Clear
10:53 PM 87.1 °F 92.0 °F 70.0 °F 57% 29.94 in 10.0 mi South 9.2 mph - N/A   Clear
11:53 PM 84.9 °F 90.7 °F 72.0 °F 65% 29.95 in 10.0 mi South 9.2 mph - N/A   Clear